TimePDT,TemperatureF,Dew PointF,Humidity,Sea Level PressureIn,VisibilityMPH,Wind Direction,Wind SpeedMPH,Gust SpeedMPH,PrecipitationIn,Events,Conditions,WindDirDegrees,DateUTC
12:53 AM,53.1,46.0,77,29.85,10.0,ESE,6.9,-,N/A,,Overcast,120,2013-04-06 07:53:00
1:53 AM,52.0,46.0,80,29.84,10.0,Calm,Calm,-,N/A,,Overcast,0,2013-04-06 08:53:00
2:53 AM,51.1,48.0,89,29.83,10.0,East,3.5,-,0.00,,Overcast,90,2013-04-06 09:53:00
3:53 AM,52.0,48.0,86,29.81,10.0,SSE,6.9,-,N/A,,Mostly Cloudy,150,2013-04-06 10:53:00
4:53 AM,51.1,46.9,86,29.83,10.0,WSW,4.6,-,N/A,,Overcast,240,2013-04-06 11:53:00
5:53 AM,51.1,45.0,80,29.86,10.0,WSW,4.6,-,N/A,,Overcast,250,2013-04-06 12:53:00
6:53 AM,52.0,44.1,74,29.88,10.0,SW,12.7,-,0.00,,Overcast,220,2013-04-06 13:53:00
7:53 AM,53.1,41.0,64,29.89,10.0,WSW,15.0,-,N/A,,Overcast,240,2013-04-06 14:53:00
8:53 AM,55.9,39.9,55,29.91,10.0,WSW,20.7,27.6,N/A,,Mostly Cloudy,240,2013-04-06 15:53:00
9:53 AM,57.9,39.9,51,29.91,10.0,WSW,17.3,21.9,N/A,,Scattered Clouds,240,2013-04-06 16:53:00
10:53 AM,57.9,37.0,46,29.92,10.0,WSW,23.0,-,N/A,,Overcast,240,2013-04-06 17:53:00
11:53 AM,52.0,45.0,77,29.95,8.0,West,16.1,31.1,0.01,Rain,Light Rain,260,2013-04-06 18:53:00
12:53 PM,60.1,37.9,44,29.94,10.0,WSW,25.3,35.7,0.01,,Mostly Cloudy,240,2013-04-06 19:53:00
1:53 PM,62.1,36.0,38,29.93,10.0,SW,23.0,28.8,N/A,,Scattered Clouds,230,2013-04-06 20:53:00
2:53 PM,61.0,35.1,38,29.93,10.0,WSW,21.9,31.1,N/A,,Mostly Cloudy,240,2013-04-06 21:53:00
3:53 PM,62.1,36.0,38,29.91,10.0,SW,19.6,-,N/A,,Overcast,220,2013-04-06 22:53:00
4:53 PM,60.1,34.0,38,29.90,10.0,WSW,16.1,27.6,N/A,,Mostly Cloudy,240,2013-04-06 23:53:00
5:53 PM,57.9,33.1,39,29.90,10.0,SW,20.7,29.9,N/A,,Mostly Cloudy,230,2013-04-07 00:53:00
6:53 PM,57.0,34.0,42,29.90,10.0,SW,16.1,-,N/A,,Mostly Cloudy,220,2013-04-07 01:53:00
7:53 PM,55.0,35.1,47,29.90,10.0,SW,11.5,-,N/A,,Overcast,220,2013-04-07 02:53:00
8:53 PM,53.1,37.9,57,29.90,10.0,SW,11.5,-,N/A,,Overcast,230,2013-04-07 03:53:00
9:53 PM,52.0,37.9,59,29.89,10.0,SSW,10.4,-,0.00,,Overcast,200,2013-04-07 04:53:00
10:53 PM,51.1,39.9,66,29.87,10.0,South,10.4,-,0.00,Rain,Light Rain,190,2013-04-07 05:53:00
11:53 PM,51.1,39.9,66,29.84,10.0,South,10.4,-,0.00,,Overcast,180,2013-04-07 06:53:00